Time,TemperatureF,DewpointF,PressureIn,WindDirection,WindDirectionDegrees,WindSpeedMPH,WindSpeedGustMPH,Humidity,HourlyPrecipIn,Conditions,Clouds,dailyrainin,SoftwareType,DateUTC
2013-02-22 00:02:00,18.0,13.0,-100.00,NNW,340,8.0,12.0,78,0.00,,,-99.99,,2013-02-22 05:02:00,
2013-02-22 00:12:00,19.0,14.0,-100.00,NNW,335,9.0,14.0,77,0.00,,,-99.99,,2013-02-22 05:12:00,
2013-02-22 00:22:00,20.0,13.0,-100.00,NW,325,7.0,12.0,76,0.00,,,-99.99,,2013-02-22 05:22:00,
2013-02-22 00:32:00,20.0,14.0,-100.00,NW,325,10.0,15.0,77,0.00,,,-99.99,,2013-02-22 05:32:00,
2013-02-22 00:42:00,21.0,15.0,-100.00,NW,325,11.0,18.0,76,0.00,,,-99.99,,2013-02-22 05:42:00,
2013-02-22 00:52:00,21.0,15.0,-100.00,NNW,330,9.0,17.0,76,0.00,,,-99.99,,2013-02-22 05:52:00,
2013-02-22 01:02:00,21.0,15.0,-100.00,NNW,330,7.0,15.0,76,0.00,,,-99.99,,2013-02-22 06:02:00,
2013-02-22 01:12:00,20.0,14.0,-100.00,NNW,330,6.0,11.0,76,0.00,,,-99.99,,2013-02-22 06:12:00,
2013-02-22 01:22:00,21.0,15.0,-100.00,NW,320,9.0,16.0,76,0.00,,,-99.99,,2013-02-22 06:22:00,
2013-02-22 01:32:00,21.0,15.0,-100.00,NW,320,7.0,13.0,76,0.00,,,-99.99,,2013-02-22 06:32:00,
2013-02-22 01:42:00,21.0,15.0,-100.00,NNW,335,7.0,12.0,77,0.00,,,-99.99,,2013-02-22 06:42:00,
2013-02-22 01:51:00,21.0,15.0,-100.00,NW,320,6.0,10.0,78,0.00,,,-99.99,,2013-02-22 06:51:00,
2013-02-22 02:01:00,21.0,15.0,-100.00,NNW,345,6.0,12.0,77,0.00,,,-99.99,,2013-02-22 07:01:00,
2013-02-22 02:11:00,21.0,15.0,-100.00,NNW,340,7.0,10.0,78,0.00,,,-99.99,,2013-02-22 07:11:00,
2013-02-22 02:21:00,21.0,15.0,-100.00,NNW,345,7.0,9.0,77,0.00,,,-99.99,,2013-02-22 07:21:00,
2013-02-22 02:32:00,20.0,15.0,-100.00,NNW,345,6.0,8.0,77,0.00,,,-99.99,,2013-02-22 07:32:00,
2013-02-22 02:42:00,20.0,15.0,-100.00,NNW,335,6.0,9.0,78,0.00,,,-99.99,,2013-02-22 07:42:00,
2013-02-22 02:51:00,21.0,15.0,-100.00,NW,325,5.0,11.0,78,0.00,,,-99.99,,2013-02-22 07:51:00,
2013-02-22 03:01:00,20.0,15.0,-100.00,NW,315,4.0,7.0,78,0.00,,,-99.99,,2013-02-22 08:01:00,
2013-02-22 03:11:00,19.0,14.0,-100.00,NNW,340,7.0,9.0,80,0.00,,,-99.99,,2013-02-22 08:11:00,
2013-02-22 03:21:00,20.0,15.0,-100.00,NNW,345,7.0,12.0,80,0.00,,,-99.99,,2013-02-22 08:21:00,
2013-02-22 03:32:00,20.0,15.0,-100.00,NNW,345,4.0,10.0,79,0.00,,,-99.99,,2013-02-22 08:32:00,
2013-02-22 03:42:00,19.0,14.0,-100.00,North,350,3.0,6.0,81,0.00,,,-99.99,,2013-02-22 08:42:00,
2013-02-22 03:52:00,18.0,14.0,-100.00,NNW,330,2.0,4.0,82,0.00,,,-99.99,,2013-02-22 08:52:00,
2013-02-22 04:03:00,17.0,13.0,-100.00,NW,315,1.0,4.0,84,0.00,,,-99.99,,2013-02-22 09:03:00,
2013-02-22 04:11:00,17.0,13.0,-100.00,NNW,330,2.0,4.0,84,0.00,,,-99.99,,2013-02-22 09:11:00,
2013-02-22 04:21:00,16.0,12.0,-100.00,NNW,345,2.0,4.0,85,0.00,,,-99.99,,2013-02-22 09:21:00,
2013-02-22 04:32:00,15.0,12.0,-100.00,North,350,1.0,4.0,85,0.00,,,-99.99,,2013-02-22 09:32:00,
2013-02-22 04:42:00,15.0,12.0,-100.00,NNW,340,2.0,3.0,86,0.00,,,-99.99,,2013-02-22 09:42:00,
2013-02-22 04:51:00,15.0,11.0,-100.00,NNW,340,2.0,3.0,87,0.00,,,-99.99,,2013-02-22 09:51:00,
2013-02-22 05:01:00,14.0,11.0,-100.00,NNW,340,3.0,4.0,87,0.00,,,-99.99,,2013-02-22 10:01:00,
2013-02-22 05:11:00,14.0,11.0,-100.00,NNW,340,2.0,4.0,88,0.00,,,-99.99,,2013-02-22 10:11:00,
2013-02-22 05:21:00,14.0,11.0,-100.00,NNW,335,3.0,4.0,88,0.00,,,-99.99,,2013-02-22 10:21:00,
2013-02-22 05:32:00,14.0,11.0,-100.00,NNW,340,3.0,4.0,88,0.00,,,-99.99,,2013-02-22 10:32:00,
2013-02-22 05:42:00,13.0,11.0,-100.00,NNW,335,2.0,4.0,89,0.00,,,-99.99,,2013-02-22 10:42:00,
2013-02-22 05:51:00,14.0,11.0,-100.00,NNW,335,2.0,4.0,89,0.00,,,-99.99,,2013-02-22 10:51:00,
2013-02-22 06:01:00,14.0,11.0,-100.00,WNW,285,1.0,4.0,89,0.00,,,-99.99,,2013-02-22 11:01:00,
2013-02-22 06:11:00,13.0,11.0,-100.00,NNW,345,2.0,4.0,89,0.00,,,-99.99,,2013-02-22 11:11:00,
2013-02-22 06:21:00,13.0,11.0,-100.00,North,350,3.0,5.0,89,0.00,,,-99.99,,2013-02-22 11:21:00,
2013-02-22 06:32:00,13.0,10.0,-100.00,NNW,340,2.0,4.0,89,0.00,,,-99.99,,2013-02-22 11:32:00,
2013-02-22 06:42:00,13.0,10.0,-100.00,NW,320,1.0,6.0,89,0.00,,,-99.99,,2013-02-22 11:42:00,
2013-02-22 06:52:00,13.0,10.0,-100.00,NNW,335,3.0,6.0,90,0.00,,,-99.99,,2013-02-22 11:52:00,
2013-02-22 07:02:00,13.0,10.0,-100.00,West,280,1.0,5.0,89,0.00,,,-99.99,,2013-02-22 12:02:00,
2013-02-22 07:11:00,13.0,11.0,-100.00,NNW,335,4.0,6.0,90,0.00,,,-99.99,,2013-02-22 12:11:00,
2013-02-22 07:22:00,13.0,11.0,-100.00,NNW,340,3.0,6.0,90,0.00,,,-99.99,,2013-02-22 12:22:00,
2013-02-22 07:32:00,14.0,12.0,-100.00,West,265,1.0,6.0,90,0.00,,,-99.99,,2013-02-22 12:32:00,
2013-02-22 07:42:00,15.0,13.0,-100.00,NNW,330,2.0,7.0,90,0.00,,,-99.99,,2013-02-22 12:42:00,
2013-02-22 07:52:00,17.0,14.0,-100.00,NNW,345,1.0,4.0,89,0.00,,,-99.99,,2013-02-22 12:52:00,
2013-02-22 08:02:00,17.0,15.0,-100.00,NNW,340,4.0,6.0,88,0.00,,,-99.99,,2013-02-22 13:02:00,
2013-02-22 08:11:00,18.0,15.0,-100.00,NNW,345,4.0,6.0,87,0.00,,,-99.99,,2013-02-22 13:11:00,
2013-02-22 08:22:00,20.0,17.0,-100.00,NNW,335,2.0,4.0,86,0.00,,,-99.99,,2013-02-22 13:22:00,
2013-02-22 08:32:00,21.0,18.0,-100.00,NW,320,1.0,4.0,85,0.00,,,-99.99,,2013-02-22 13:32:00,
2013-02-22 08:42:00,24.0,19.0,-100.00,NNW,345,1.0,2.0,82,0.00,,,-99.99,,2013-02-22 13:42:00,
2013-02-22 08:52:00,25.0,19.0,-100.00,WNW,290,1.0,3.0,79,0.00,,,-99.99,,2013-02-22 13:52:00,
2013-02-22 09:01:00,26.0,19.0,-100.00,West,280,1.0,2.0,75,0.00,,,-99.99,,2013-02-22 14:01:00,
2013-02-22 09:11:00,27.0,18.0,-100.00,NNW,345,3.0,6.0,69,0.00,,,-99.99,,2013-02-22 14:11:00,
2013-02-22 09:21:00,28.0,18.0,-100.00,North,5,3.0,7.0,66,0.00,,,-99.99,,2013-02-22 14:21:00,
2013-02-22 09:32:00,28.0,17.0,-100.00,NW,325,5.0,7.0,61,0.00,,,-99.99,,2013-02-22 14:32:00,
2013-02-22 09:42:00,29.0,17.0,-100.00,NW,325,2.0,8.0,59,0.00,,,-99.99,,2013-02-22 14:42:00,
2013-02-22 09:52:00,29.0,17.0,-100.00,NNW,335,5.0,10.0,58,0.00,,,-99.99,,2013-02-22 14:52:00,
2013-02-22 10:02:00,31.0,17.0,-100.00,NNW,340,4.0,9.0,56,0.00,,,-99.99,,2013-02-22 15:02:00,
2013-02-22 10:11:00,30.0,17.0,-100.00,North,350,3.0,6.0,57,0.00,,,-99.99,,2013-02-22 15:11:00,
2013-02-22 10:22:00,31.0,17.0,-100.00,NNW,345,1.0,6.0,54,0.00,,,-99.99,,2013-02-22 15:22:00,
2013-02-22 10:32:00,31.0,15.0,-100.00,WNW,300,2.0,6.0,51,0.00,,,-99.99,,2013-02-22 15:32:00,
2013-02-22 10:42:00,32.0,15.0,-100.00,North,350,2.0,4.0,49,0.00,,,-99.99,,2013-02-22 15:42:00,
2013-02-22 10:52:00,32.0,14.0,-100.00,East,85,1.0,8.0,47,0.00,,,-99.99,,2013-02-22 15:52:00,
2013-02-22 11:02:00,32.0,15.0,-100.00,NNE,25,3.0,7.0,48,0.00,,,-99.99,,2013-02-22 16:02:00,
2013-02-22 11:12:00,33.0,15.0,-100.00,NW,320,3.0,6.0,46,0.00,,,-99.99,,2013-02-22 16:12:00,
2013-02-22 11:22:00,33.0,15.0,-100.00,West,275,2.0,9.0,48,0.00,,,-99.99,,2013-02-22 16:22:00,
2013-02-22 11:32:00,33.0,15.0,-100.00,NNW,345,4.0,7.0,46,0.00,,,-99.99,,2013-02-22 16:32:00,
2013-02-22 11:42:00,33.0,15.0,-100.00,NNW,330,6.0,10.0,47,0.00,,,-99.99,,2013-02-22 16:42:00,
2013-02-22 11:52:00,33.0,15.0,-100.00,SW,230,1.0,6.0,46,0.00,,,-99.99,,2013-02-22 16:52:00,
2013-02-22 12:01:00,34.0,15.0,-100.00,NNW,330,2.0,4.0,45,0.00,,,-99.99,,2013-02-22 17:01:00,
2013-02-22 12:11:00,34.0,15.0,-100.00,NNW,330,2.0,4.0,45,0.00,,,-99.99,,2013-02-22 17:11:00,
2013-02-22 12:21:00,34.0,14.0,-100.00,ENE,75,2.0,6.0,42,0.00,,,-99.99,,2013-02-22 17:21:00,
2013-02-22 12:32:00,34.0,14.0,-100.00,South,170,3.0,7.0,43,0.00,,,-99.99,,2013-02-22 17:32:00,
2013-02-22 12:42:00,35.0,13.0,-100.00,East,100,4.0,9.0,40,0.00,,,-99.99,,2013-02-22 17:42:00,
2013-02-22 12:52:00,34.0,13.0,-100.00,SSE,150,3.0,7.0,40,0.00,,,-99.99,,2013-02-22 17:52:00,
2013-02-22 13:02:00,34.0,14.0,-100.00,South,180,3.0,7.0,43,0.00,,,-99.99,,2013-02-22 18:02:00,
2013-02-22 13:12:00,35.0,15.0,-100.00,SE,125,2.0,4.0,41,0.00,,,-99.99,,2013-02-22 18:12:00,
2013-02-22 13:22:00,34.0,13.0,-100.00,South,170,4.0,6.0,41,0.00,,,-99.99,,2013-02-22 18:22:00,
2013-02-22 13:32:00,34.0,13.0,-100.00,South,185,2.0,4.0,42,0.00,,,-99.99,,2013-02-22 18:32:00,
2013-02-22 13:42:00,34.0,15.0,-100.00,NW,310,1.0,6.0,45,0.00,,,-99.99,,2013-02-22 18:42:00,
2013-02-22 13:51:00,34.0,13.0,-100.00,South,185,2.0,7.0,42,0.00,,,-99.99,,2013-02-22 18:51:00,
2013-02-22 14:01:00,35.0,13.0,-100.00,NNE,25,2.0,5.0,39,0.00,,,-99.99,,2013-02-22 19:01:00,
2013-02-22 14:11:00,35.0,12.0,-100.00,East,100,1.0,4.0,38,0.00,,,-99.99,,2013-02-22 19:11:00,
2013-02-22 14:21:00,35.0,12.0,-100.00,South,190,1.0,2.0,38,0.00,,,-99.99,,2013-02-22 19:21:00,
2013-02-22 14:31:00,36.0,13.0,-100.00,SE,145,2.0,4.0,38,0.00,,,-99.99,,2013-02-22 19:31:00,
2013-02-22 14:41:00,35.0,12.0,-100.00,SSE,150,6.0,9.0,38,0.00,,,-99.99,,2013-02-22 19:41:00,
2013-02-22 14:52:00,35.0,13.0,-100.00,South,180,3.0,7.0,40,0.00,,,-99.99,,2013-02-22 19:52:00,
2013-02-22 15:01:00,35.0,13.0,-100.00,SSW,195,6.0,7.0,40,0.00,,,-99.99,,2013-02-22 20:01:00,
2013-02-22 15:11:00,35.0,14.0,-100.00,SSW,205,1.0,4.0,40,0.00,,,-99.99,,2013-02-22 20:11:00,
2013-02-22 15:21:00,36.0,14.0,-100.00,NW,315,1.0,3.0,40,0.00,,,-99.99,,2013-02-22 20:21:00,
2013-02-22 15:32:00,36.0,13.0,-100.00,SE,125,1.0,4.0,39,0.00,,,-99.99,,2013-02-22 20:32:00,
2013-02-22 15:41:00,36.0,12.0,-100.00,WNW,285,1.0,2.0,37,0.00,,,-99.99,,2013-02-22 20:41:00,
2013-02-22 15:52:00,36.0,12.0,-100.00,SE,145,2.0,4.0,38,0.00,,,-99.99,,2013-02-22 20:52:00,
2013-02-22 16:02:00,35.0,13.0,-100.00,East,90,0.0,6.0,38,0.00,,,-99.99,,2013-02-22 21:02:00,
2013-02-22 16:11:00,35.0,14.0,-100.00,SSE,160,1.0,2.0,40,0.00,,,-99.99,,2013-02-22 21:11:00,
2013-02-22 16:21:00,35.0,13.0,-100.00,South,180,2.0,4.0,38,0.00,,,-99.99,,2013-02-22 21:21:00,
2013-02-22 16:32:00,35.0,14.0,-100.00,NE,45,1.0,3.0,41,0.00,,,-99.99,,2013-02-22 21:32:00,
2013-02-22 16:42:00,35.0,13.0,-100.00,SSE,160,1.0,3.0,41,0.00,,,-99.99,,2013-02-22 21:42:00,
2013-02-22 16:52:00,33.0,20.0,-100.00,SSW,210,0.0,2.0,59,0.00,,,-99.99,,2013-02-22 21:52:00,
2013-02-22 17:01:00,32.0,21.0,-100.00,SW,235,1.0,2.0,62,0.00,,,-99.99,,2013-02-22 22:01:00,
2013-02-22 17:11:00,32.0,16.0,-100.00,WNW,295,0.0,2.0,51,0.00,,,-99.99,,2013-02-22 22:11:00,
2013-02-22 17:21:00,31.0,19.0,-100.00,WNW,290,1.0,4.0,60,0.00,,,-99.99,,2013-02-22 22:21:00,
2013-02-22 17:32:00,31.0,18.0,-100.00,NNW,345,2.0,4.0,58,0.00,,,-99.99,,2013-02-22 22:32:00,
2013-02-22 17:42:00,31.0,19.0,-100.00,NNW,340,1.0,4.0,60,0.00,,,-99.99,,2013-02-22 22:42:00,
2013-02-22 17:51:00,30.0,18.0,-100.00,NNW,340,1.0,3.0,62,0.00,,,-99.99,,2013-02-22 22:51:00,
2013-02-22 18:01:00,29.0,19.0,-100.00,NNE,20,1.0,2.0,64,0.00,,,-99.99,,2013-02-22 23:01:00,
2013-02-22 18:11:00,29.0,19.0,-100.00,North,355,1.0,3.0,64,0.00,,,-99.99,,2013-02-22 23:11:00,
2013-02-22 18:21:00,29.0,19.0,-100.00,West,270,1.0,2.0,65,0.00,,,-99.99,,2013-02-22 23:21:00,
2013-02-22 18:32:00,29.0,19.0,-100.00,NNW,335,1.0,4.0,66,0.00,,,-99.99,,2013-02-22 23:32:00,
2013-02-22 18:41:00,28.0,18.0,-100.00,North,350,0.0,2.0,65,0.00,,,-99.99,,2013-02-22 23:41:00,
2013-02-22 18:52:00,29.0,19.0,-100.00,North,5,1.0,1.0,66,0.00,,,-99.99,,2013-02-22 23:52:00,
2013-02-22 19:02:00,28.0,19.0,-100.00,West,260,0.0,2.0,68,0.00,,,-99.99,,2013-02-23 00:02:00,
2013-02-22 19:11:00,29.0,19.0,-100.00,NW,320,1.0,3.0,66,0.00,,,-99.99,,2013-02-23 00:11:00,
2013-02-22 19:21:00,29.0,19.0,-100.00,WNW,285,0.0,1.0,66,0.00,,,-99.99,,2013-02-23 00:21:00,
2013-02-22 19:32:00,29.0,19.0,-100.00,WSW,240,0.0,3.0,67,0.00,,,-99.99,,2013-02-23 00:32:00,
2013-02-22 19:42:00,29.0,19.0,-100.00,NNW,335,1.0,1.0,67,0.00,,,-99.99,,2013-02-23 00:42:00,
2013-02-22 19:51:00,28.0,19.0,-100.00,ESE,105,0.0,1.0,67,0.00,,,-99.99,,2013-02-23 00:51:00,
2013-02-22 20:01:00,28.0,19.0,-100.00,South,170,1.0,3.0,67,0.00,,,-99.99,,2013-02-23 01:01:00,
2013-02-22 20:11:00,29.0,19.0,-100.00,WSW,250,0.0,4.0,66,0.00,,,-99.99,,2013-02-23 01:11:00,
2013-02-22 20:21:00,29.0,18.0,-100.00,SE,145,1.0,3.0,62,0.00,,,-99.99,,2013-02-23 01:21:00,
2013-02-22 20:32:00,29.0,17.0,-100.00,South,170,1.0,2.0,61,0.00,,,-99.99,,2013-02-23 01:32:00,
2013-02-22 20:42:00,29.0,18.0,-100.00,SSE,160,1.0,2.0,62,0.00,,,-99.99,,2013-02-23 01:42:00,
2013-02-22 20:51:00,29.0,18.0,-100.00,South,175,1.0,2.0,63,0.00,,,-99.99,,2013-02-23 01:51:00,
2013-02-22 21:01:00,29.0,18.0,-100.00,South,170,2.0,3.0,65,0.00,,,-99.99,,2013-02-23 02:01:00,
2013-02-22 21:11:00,29.0,18.0,-100.00,SSE,165,2.0,3.0,65,0.00,,,-99.99,,2013-02-23 02:11:00,
2013-02-22 21:21:00,29.0,19.0,-100.00,SE,145,2.0,4.0,66,0.00,,,-99.99,,2013-02-23 02:21:00,
2013-02-22 21:32:00,28.0,19.0,-100.00,SSE,165,1.0,3.0,67,0.00,,,-99.99,,2013-02-23 02:32:00,
2013-02-22 21:42:00,29.0,19.0,-100.00,South,170,1.0,4.0,65,0.00,,,-99.99,,2013-02-23 02:42:00,
2013-02-22 21:52:00,29.0,19.0,-100.00,ENE,75,1.0,2.0,65,0.00,,,-99.99,,2013-02-23 02:52:00,
2013-02-22 22:02:00,29.0,19.0,-100.00,SSE,155,1.0,3.0,66,0.00,,,-99.99,,2013-02-23 03:02:00,
2013-02-22 22:11:00,29.0,19.0,-100.00,South,180,2.0,4.0,67,0.00,,,-99.99,,2013-02-23 03:11:00,
2013-02-22 22:21:00,29.0,19.0,-100.00,SSE,165,2.0,3.0,67,0.00,,,-99.99,,2013-02-23 03:21:00,
2013-02-22 22:32:00,29.0,19.0,-100.00,SE,140,1.0,2.0,67,0.00,,,-99.99,,2013-02-23 03:32:00,
2013-02-22 22:42:00,29.0,19.0,-100.00,SE,145,1.0,2.0,67,0.00,,,-99.99,,2013-02-23 03:42:00,
2013-02-22 22:51:00,29.0,19.0,-100.00,South,175,1.0,3.0,66,0.00,,,-99.99,,2013-02-23 03:51:00,
2013-02-22 23:01:00,29.0,20.0,-100.00,ESE,120,1.0,2.0,68,0.00,,,-99.99,,2013-02-23 04:01:00,
2013-02-22 23:11:00,28.0,20.0,-100.00,ESE,120,1.0,2.0,70,0.00,,,-99.99,,2013-02-23 04:11:00,
2013-02-22 23:21:00,28.0,20.0,-100.00,SE,140,1.0,3.0,71,0.00,,,-99.99,,2013-02-23 04:21:00,
2013-02-22 23:32:00,28.0,20.0,-100.00,SSE,155,1.0,3.0,70,0.00,,,-99.99,,2013-02-23 04:32:00,
2013-02-22 23:41:00,29.0,20.0,-100.00,South,175,1.0,2.0,69,0.00,,,-99.99,,2013-02-23 04:41:00,
2013-02-22 23:51:00,29.0,20.0,-100.00,ESE,110,1.0,3.0,70,0.00,,,-99.99,,2013-02-23 04:51:00,